Location: Makakahi
(40.6833°S, 175.6000°E)
Time: 23:29:17
(UTC+00:00)

FENGYUN 1C DEB - Pass Details

Date: 06 December 2024
Orbit: 841 x 907 km, 98.9° (Epoch: 11 January)

Event Time Altitude Azimuth Distance (km) Brightness Sun altitude
Rises 08:14:03 0° 154° (SSE) 3,507 ? -6.5°
Reaches altitude 10° 08:16:56 10° 140° (SE) 2,548 ? -7.0°
Maximum altitude 08:21:31 25° 86° (E) 1,690 ? -7.7°
Drops below altitude 10° 08:25:59 10° 32° (NNE) 2,488 ? -8.3°
Enters shadow 08:26:34 - 28° (NNE) 2,666 ? -8.4°
